Regional Weather Roundup
Issued by NWS

Home | Current Version | Previous Version | Text Only | Print | Product List | Glossary On
Versions: 1 2 3 4 5 6 7 8 9 10 11 12 13 14 15 16 17 18 19 20 21 22 23 24 25 26 27 28 29 30 31 32 33 34 35 36 37 38 39 40 41 42 43 44 45 46 47 48 49 50
000
ASUS45 KREV 250910
RWRNV
NEVADA REGIONAL WEATHER ROUNDUP
NATIONAL WEATHER SERVICE RENO NV
100 AM PST THU DEC 25 2014

NOTE: "FAIR" INDICATES FEW OR NO CLOUDS BELOW 12,000 FEET WITH NO
SIGNIFICANT WEATHER AND/OR OBSTRUCTIONS TO VISIBILITY.

NVZ001-003-004-251000-
WESTERN NEVADA

CITY           SKY/WX    TMP DP  RH WIND       PRES   REMARKS
RENO           PTCLDY    31  18  58 NW14      29.98S
CARSON CITY    FAIR      32  16  51 NW15G23   29.96S
MINDEN         FAIR      27  16  63 E8        29.98
PYRAMID LAKE     N/A     36 N/A N/A NW13        N/A
FALLON         PTCLDY    33  19  56 N13       29.93R
LOVELOCK       CLEAR     33  15  47 NW22G37   29.89F
HAWTHORNE      CLOUDY    36  19  51 NW22G29   29.92R
$$

NVZ002-CAZ072-073-251000-
NORTHERN AND CENTRAL SIERRA

CITY           SKY/WX    TMP DP  RH WIND       PRES   REMARKS
S. LAKE TAHOE  MOCLDY    26  16  65 CALM      29.91R
TRUCKEE        CLOUDY    25  16  68 NE14G21   29.95S
SQUAW VLY 8000   N/A     16  14  93 VRB23       N/A  WCI  -2
BLUE CANYON    CLEAR     28  14  55 NE10G22   29.94S
MAMMOTH LAKES  FAIR      23  12  63 W12G20    29.85R
BRIDGEPORT     FAIR      21  10  62 VRB5      29.86R
$$

NVZ030-031-036-251000-
NORTHERN NEVADA

CITY           SKY/WX    TMP DP  RH WIND       PRES   REMARKS
ELKO           FLURRIES  28  19  69 VRB7G17   29.71R
WINNEMUCCA     MOCLDY    29  18  63 NW8G16    29.89R
WENDOVER       CLOUDY    36  21  55 NW15G22   29.54R
$$

NVZ035-037-251000-
CENTRAL NEVADA

CITY           SKY/WX    TMP DP  RH WIND       PRES   REMARKS
ELY            CLOUDY    26  19  74 NW13G21   29.60R
EUREKA           N/A     26  21  81 N17G25    29.69R
$$

NVZ013-014-251000-
SOUTH CENTRAL NEVADA

CITY           SKY/WX    TMP DP  RH WIND       PRES   REMARKS
TONOPAH        PTCLDY    29  19  66 NW31G45   29.75R
$$

NVZ017-020-022-251000-
SOUTHERN NEVADA

CITY           SKY/WX    TMP DP  RH WIND       PRES   REMARKS
LAS VEGAS      CLOUDY    52  24  33 NW18G35   29.60R
N. LAS VEGAS   LGT RAIN  48  25  40 NW28G36   29.63R
NELLIS AFB     CLOUDY    49  23  35 NE8       29.64R
HENDERSON      CLOUDY    56  33  42 W21G28    29.63R
MERCURY        CLOUDY    42  29  59 NE20G25   29.69R
$$


USA.gov is the U.S. government's official web portal to all federal, state and local government web resources and services.